Flag for Spain Weather past 2 weeks in Granada, Spain

Now
88 °F

Scattered clouds.


Feels Like: 85 °F
Forecast: 55 / 85 °F
Wind: 12 mph from Northwest

Location: Granada / Aeropuerto

Current Time: May 30, 2015 at 7:10:21 PM

Latest Report: May 30, 2015 at 6:30 PM


Visibility: N/A

Pressure: 30.01 "Hg

Humidity: 22%

Dew point: 45 °F

Location of GranadaLocation

Historic Weather in Granada — Graph

°F

Granada temperature yesterday

Maximum temperature yesterday: 86 °F (at 3:30 PM)
Minimum temperature yesterday: 55 °F (at 8:00 AM)
Average temperature yesterday: 73 °F

Past Weeks' High & Low Weather Summary

 TemperatureHumidityPressure
High90 °F (May 16, 5:00 PM)88% (May 21, 6:00 AM)30.21 "Hg (May 21, 6:00 AM)
Low50 °F (May 22, 6:30 AM)11% (May 16, 3:30 PM)29.80 "Hg (May 19, 4:00 PM)
Average72 °F42%30.04 "Hg
* Reported May 15 6:00 PM — May 30 6:00 PM, Granada, Weather by CustomWeather, © 2015

Note: Actual official high and low records may vary slightly from our data, if they occured in-between our weather recording intervals... More about our weather records

Advertising

Granada weather history for previous 24 hours

 ConditionsComfort  
Time TempWeatherWind HumidityBarometerVisibility
6:00 PM
Sat, May 30
88 °FScattered clouds.15 mph22%30.01 "HgN/A
5:30 PM88 °FScattered clouds.10 mph22%30.01 "HgN/A
5:00 PM88 °FScattered clouds.16 mph22%30.01 "HgN/A
4:30 PM88 °FScattered clouds.12 mph21%30.04 "HgN/A
4:00 PM90 °FScattered clouds.12 mph22%30.04 "HgN/A
3:30 PM88 °FScattered clouds.13 mph24%30.04 "HgN/A
3:00 PM86 °FScattered clouds.10 mph25%30.04 "HgN/A
2:30 PM86 °FPassing clouds.10 mph27%30.04 "HgN/A
2:00 PM84 °FPassing clouds.6 mph29%30.07 "HgN/A
1:30 PM82 °FPassing clouds.1 mph32%30.07 "HgN/A
1:00 PM81 °FPassing clouds.2 mph32%30.07 "HgN/A
12:30 PM79 °FPassing clouds.2 mph37%30.09 "HgN/A
12:00 PM77 °FPassing clouds.2 mph42%30.09 "HgN/A
11:30 AM75 °FPassing clouds.3 mph47%30.09 "HgN/A
11:00 AM73 °FPassing clouds.6 mph57%30.09 "HgN/A
10:30 AM72 °FSunny.2 mph53%30.09 "Hg10 mi
10:00 AM72 °FSunny.1 mph57%30.09 "Hg10 mi
9:30 AM70 °FSunny.No wind60%30.09 "Hg10 mi
9:00 AM66 °FSunny.No wind68%30.09 "Hg10 mi
8:30 AM64 °FPassing clouds.2 mph73%30.07 "HgN/A
8:00 AM59 °FPassing clouds.2 mph88%30.07 "HgN/A
7:30 AM59 °FPassing clouds.3 mph88%30.07 "HgN/A
7:00 AM59 °FPassing clouds.3 mph88%30.07 "HgN/A
6:30 AM59 °FPassing clouds.1 mph82%30.07 "HgN/A
6:00 AM59 °FPassing clouds.5 mph82%30.07 "HgN/A
11:00 PM
Fri, May 29
64 °FPassing clouds.1 mph73%30.04 "HgN/A
10:30 PM64 °FPassing clouds.2 mph73%30.01 "HgN/A
10:00 PM66 °FPassing clouds.2 mph73%30.01 "HgN/A
9:30 PM70 °FPassing clouds.No wind69%30.01 "HgN/A
9:00 PM72 °FScattered clouds.1 mph61%29.98 "HgN/A
8:30 PM73 °FScattered clouds.3 mph50%29.98 "HgN/A
8:00 PM73 °FScattered clouds.3 mph53%29.98 "HgN/A
7:30 PM73 °FScattered clouds.7 mph57%29.98 "HgN/A
7:00 PM72 °FScattered showers. Scattered clouds.9 mph65%29.98 "HgN/A
Weather by CustomWeather, © 2015

See weather overviewHow to use our weather pages